0 HST 1 20580U 90037B 26174.98863599 .00006014 00000-0 18861-3 0 9999 2 20580 28.4728 34.0889 0001455 220.4821 139.5667 15.30816101789618 0 ISS (ZARYA) 1 25544U 98067A 26175.15560926 .00007363 00000-0 13975-3 0 9992 2 25544 51.6326 265.6000 0004427 224.4953 135.5681 15.49396189572839 0 CXO 1 25867U 99040B 26177.31113606 .00000484 00000-0 00000-0 0 9990 2 25867 56.2784 116.4107 7818645 310.1913 0.3296 0.37800874 17352